Simultaneous Nadir Overpasses (SNOs) Predictions

Prediction of SNOs between AQUA and TERRA Satellite Orbit:

Table of predicted SNOs for the next 14.0 days since TLE Epoch: 10/15/2022
Index Date (AQUA) Time (AQUA) Lat,Lon (AQUA) SZA (AQUA ) Date (TERRA) Time (TERRA) Lat,Lon (TERRA) SZA (TERRA ) Distance(km) Time Diff (sec)
1 10/20/2022 18:17:01 -72.79, 83.31 96.78 10/20/2022 18:18:06 -72.75, 86.25 96.77 97.01 65
2 10/20/2022 19:06:27 72.74,-108.96 83.19 10/20/2022 19:07:32 72.69,-106.22 83.18 90.51 65
3 10/20/2022 19:55:51 -72.70, 58.77 96.85 10/20/2022 19:56:57 -72.66, 61.38 96.83 86.58 66
4 10/20/2022 20:45:17 72.65,-133.50 83.12 10/20/2022 20:46:23 72.60,-131.10 83.12 80.02 66
5 10/20/2022 21:34:42 -72.66, 34.12 96.86 10/20/2022 21:35:48 -72.58, 36.51 96.90 79.85 66
6 10/20/2022 22:24:07 72.56,-158.05 83.06 10/20/2022 22:25:14 72.51,-155.97 83.05 69.54 67
7 10/20/2022 23:13:32 -72.57, 9.58 96.92 10/20/2022 23:14:39 -72.49, 11.64 96.97 69.48 67
8 10/21/2022 00:02:57 72.47, 177.41 82.99 10/21/2022 00:04:05 72.42, 179.16 82.98 59.08 68
9 10/21/2022 00:52:22 -72.48, -14.97 96.99 10/21/2022 00:53:30 -72.40, -13.23 97.04 59.13 68
10 10/21/2022 01:41:47 72.38, 152.86 82.93 10/21/2022 01:42:56 72.33, 154.29 82.91 48.62 69
11 10/21/2022 02:31:12 -72.39, -39.52 97.05 10/21/2022 02:32:21 -72.31, -38.10 97.11 48.83 69
12 10/21/2022 03:20:38 72.34, 128.21 82.92 10/21/2022 03:21:47 72.24, 129.43 82.84 42.58 69
13 10/21/2022 04:10:02 -72.30, -64.07 97.11 10/21/2022 04:11:11 -72.27, -62.87 97.12 40.80 69
14 10/21/2022 04:59:28 72.25, 103.66 82.85 10/21/2022 05:00:37 72.20, 104.66 82.83 34.16 69
15 10/21/2022 05:48:52 -72.21, -88.62 97.18 10/21/2022 05:50:02 -72.18, -87.73 97.19 30.39 70
16 10/21/2022 06:38:18 72.16, 79.11 82.79 10/21/2022 06:39:28 72.11, 79.79 82.76 23.83 70
17 10/21/2022 07:27:42 -72.12,-113.17 97.24 10/21/2022 07:28:53 -72.09,-112.60 97.25 20.03 71
18 10/21/2022 08:17:08 72.07, 54.56 82.73 10/21/2022 08:18:19 72.02, 54.93 82.69 13.78 71
19 10/21/2022 09:06:32 -72.03,-137.73 97.30 10/21/2022 09:07:44 -72.01,-137.46 97.32 9.84 72
20 10/21/2022 09:55:58 71.98, 30.00 82.66 10/21/2022 09:57:09 71.99, 30.16 82.68 5.48 71
21 10/21/2022 10:45:23 -72.00,-162.38 97.31 10/21/2022 10:46:34 -71.97,-162.23 97.34 6.13 71
22 10/21/2022 11:34:49 71.94, 5.35 82.65 10/21/2022 11:35:59 71.95, 5.39 82.66 1.57 70
23 10/21/2022 12:24:14 -71.96, 172.97 97.33 10/21/2022 12:25:24 -71.93, 173.01 97.35 3.30 70
24 10/21/2022 13:13:40 71.91, -19.30 82.64 10/21/2022 13:14:49 71.92, -19.38 82.65 2.81 69
25 10/21/2022 14:03:05 -71.92, 148.32 97.34 10/21/2022 14:04:13 -71.95, 148.33 97.31 2.99 68
26 10/21/2022 14:52:32 71.93, -44.05 82.68 10/21/2022 14:53:38 71.93, -44.05 82.69 0.88 66
27 10/21/2022 15:41:57 -71.94, 123.57 97.30 10/21/2022 15:43:03 -71.92, 123.56 97.32 2.97 66
28 10/21/2022 16:31:24 71.94, -68.79 82.72 10/21/2022 16:32:27 71.95, -68.73 82.74 2.23 63
29 10/21/2022 17:20:48 -71.91, 98.92 97.31 10/21/2022 17:21:52 -71.93, 98.89 97.28 3.31 64
30 10/21/2022 18:10:15 71.91, -93.44 82.71 10/21/2022 18:11:17 71.91, -93.50 82.72 2.17 62
31 10/21/2022 18:59:40 -71.92, 74.18 97.27 10/21/2022 19:00:41 -71.95, 74.21 97.23 3.31 61
32 10/21/2022 19:49:07 71.92,-118.19 82.75 10/21/2022 19:50:06 71.93,-118.17 82.77 0.95 59
33 10/21/2022 20:38:32 -71.94, 49.43 97.22 10/21/2022 20:39:31 -71.91, 49.44 97.25 2.83 59
34 10/21/2022 21:27:59 71.94,-142.93 82.79 10/21/2022 21:28:55 71.95,-142.85 82.81 2.91 56
35 10/21/2022 22:17:23 -71.90, 24.78 97.24 10/21/2022 22:18:20 -71.93, 24.77 97.20 3.23 57
36 10/21/2022 23:06:50 71.90,-167.58 82.78 10/21/2022 23:07:45 71.91,-167.62 82.79 1.55 55
37 10/21/2022 23:56:15 -71.92, 0.04 97.19 10/21/2022 23:57:10 -71.90, -0.00 97.22 3.05 55
38 10/22/2022 00:45:42 71.92, 167.67 82.82 10/22/2022 00:46:34 71.93, 167.70 82.84 1.41 52
39 10/22/2022 01:35:07 -71.94, -24.71 97.15 10/22/2022 01:35:59 -71.91, -24.68 97.17 2.92 52
40 10/22/2022 02:24:33 71.89, 143.02 82.81 10/22/2022 02:25:24 71.89, 142.94 82.82 3.07 51
41 10/22/2022 03:13:58 -71.90, -49.36 97.16 10/22/2022 03:14:48 -71.93, -49.35 97.13 3.27 50
42 10/22/2022 04:03:25 71.90, 118.28 82.85 10/22/2022 04:04:13 71.91, 118.26 82.87 1.00 48
43 10/22/2022 04:52:50 -71.92, -74.10 97.12 10/22/2022 04:53:38 -71.89, -74.12 97.14 2.75 48
44 10/22/2022 05:42:17 71.92, 93.53 82.90 10/22/2022 05:43:02 71.93, 93.58 82.91 2.00 45
45 10/22/2022 06:31:42 -71.94, -98.85 97.08 10/22/2022 06:32:27 -71.91, -98.80 97.10 3.24 45
46 10/22/2022 07:21:08 71.88, 68.88 82.88 10/22/2022 07:21:52 71.89, 68.81 82.89 2.35 44
47 10/22/2022 08:10:33 -71.90,-123.50 97.09 10/22/2022 08:11:16 -71.93,-123.47 97.06 3.43 43
48 10/22/2022 09:00:00 71.90, 44.13 82.93 10/22/2022 09:00:41 71.91, 44.14 82.94 0.77 41
49 10/22/2022 09:49:25 -71.92,-148.25 97.05 10/22/2022 09:50:06 -71.89,-148.24 97.07 2.69 41
50 10/22/2022 10:38:52 71.92, 19.39 82.97 10/22/2022 10:39:30 71.93, 19.46 82.98 2.66 38
51 10/22/2022 11:28:16 -71.88,-172.90 97.06 10/22/2022 11:28:55 -71.91,-172.92 97.03 3.33 39
52 10/22/2022 12:17:43 71.88, -5.26 82.96 10/22/2022 12:18:20 71.89, -5.31 82.96 1.62 37
53 10/22/2022 13:07:08 -71.90, 162.36 97.02 10/22/2022 13:07:45 -71.87, 162.32 97.04 3.07 37
54 10/22/2022 13:56:34 71.90, -30.01 83.00 10/22/2022 13:57:08 71.91, -29.98 83.01 1.10 34
55 10/22/2022 14:45:59 -71.92, 137.61 96.98 10/22/2022 14:46:33 -71.89, 137.64 97.00 2.89 34
56 10/22/2022 15:35:25 71.87, -54.66 82.99 10/22/2022 15:35:58 71.87, -54.75 82.99 3.18 33
57 10/22/2022 16:24:50 -71.88, 112.96 96.99 10/22/2022 16:25:22 -71.91, 112.96 96.96 3.21 32
58 10/22/2022 17:14:17 71.88, -79.41 83.03 10/22/2022 17:14:47 71.89, -79.43 83.04 0.89 30
59 10/22/2022 18:03:42 -71.90, 88.21 96.95 10/22/2022 18:04:12 -71.87, 88.19 96.97 2.86 30
60 10/22/2022 18:53:09 71.90,-104.15 83.07 10/22/2022 18:53:36 71.90,-104.10 83.08 1.71 27
61 10/22/2022 19:42:34 -71.92, 63.47 96.91 10/22/2022 19:43:01 -71.89, 63.52 96.93 3.31 27
62 10/22/2022 20:32:00 71.86,-128.80 83.06 10/22/2022 20:32:26 71.87,-128.87 83.06 2.40 26
63 10/22/2022 21:21:25 -71.88, 38.82 96.92 10/22/2022 21:21:50 -71.91, 38.84 96.89 3.24 25
64 10/22/2022 22:10:52 71.88,-153.55 83.10 10/22/2022 22:11:15 71.89,-153.55 83.11 0.28 23
65 10/22/2022 23:00:17 -71.90, 14.07 96.88 10/22/2022 23:00:40 -71.87, 14.07 96.90 2.91 23
66 10/22/2022 23:49:44 71.90,-178.30 83.14 10/22/2022 23:50:04 71.90,-178.23 83.15 2.42 20
67 10/23/2022 00:39:08 -71.86, -10.58 96.89 10/23/2022 00:39:29 -71.89, -10.60 96.86 3.08 21
68 10/23/2022 01:28:35 71.86, 157.05 83.13 10/23/2022 01:28:54 71.87, 157.00 83.13 1.62 19
69 10/23/2022 02:18:00 -71.88, -35.33 96.85 10/23/2022 02:18:19 -71.85, -35.37 96.87 3.36 19
70 10/23/2022 03:07:27 71.88, 132.31 83.17 10/23/2022 03:07:43 71.88, 132.33 83.18 0.78 16
71 10/23/2022 03:56:52 -71.90, -60.07 96.81 10/23/2022 03:57:08 -71.87, -60.05 96.83 3.21 16
72 10/23/2022 04:46:19 71.90, 107.56 83.22 10/23/2022 04:46:32 71.90, 107.65 83.22 3.18 13
73 10/23/2022 05:35:43 -71.86, -84.73 96.82 10/23/2022 05:35:57 -71.89, -84.72 96.79 2.82 14
74 10/23/2022 06:25:10 71.86, 82.91 83.20 10/23/2022 06:25:22 71.86, 82.88 83.20 0.87 12
75 10/23/2022 07:14:35 -71.88,-109.47 96.77 10/23/2022 07:14:47 -71.85,-109.49 96.80 3.29 12
76 10/23/2022 08:04:02 71.88, 58.16 83.25 10/23/2022 08:04:11 71.88, 58.21 83.24 1.58 9
77 10/23/2022 08:53:26 -71.84,-134.12 96.78 10/23/2022 08:53:36 -71.87,-134.17 96.76 3.05 10
78 10/23/2022 09:42:53 71.85, 33.51 83.24 10/23/2022 09:43:01 71.84, 33.44 83.23 2.50 8
79 10/23/2022 10:32:18 -71.86,-158.87 96.74 10/23/2022 10:32:25 -71.89,-158.84 96.72 2.74 7
80 10/23/2022 11:21:45 71.87, 8.76 83.28 10/23/2022 11:21:50 71.86, 8.76 83.27 0.55 5
81 10/23/2022 12:11:10 -71.88, 176.38 96.70 10/23/2022 12:11:15 -71.85, 176.39 96.73 3.48 5
82 10/23/2022 13:00:37 71.88, -15.98 83.32 10/23/2022 13:00:39 71.88, -15.92 83.31 2.43 2
83 10/23/2022 13:50:01 -71.84, 151.73 96.71 10/23/2022 13:50:04 -71.87, 151.71 96.69 2.49 3
84 10/23/2022 14:39:28 71.85, -40.64 83.31 10/23/2022 14:39:29 71.84, -40.69 83.30 1.87 1
85 10/23/2022 15:28:53 -71.86, 126.98 96.67 10/23/2022 15:28:53 -71.88, 127.03 96.65 2.88 0
86 10/23/2022 16:18:20 71.87, -65.38 83.35 10/23/2022 16:18:18 71.86, -65.36 83.34 1.19 2
87 10/23/2022 17:07:44 -71.83, 102.33 96.68 10/23/2022 17:07:43 -71.85, 102.27 96.66 3.14 1
88 10/23/2022 17:57:12 71.88, -90.13 83.39 10/23/2022 17:57:07 71.87, -90.04 83.38 3.31 5
89 10/23/2022 18:46:36 -71.85, 77.58 96.64 10/23/2022 18:46:32 -71.86, 77.59 96.62 2.09 4
90 10/23/2022 19:36:03 71.85,-114.78 83.38 10/23/2022 19:35:57 71.84,-114.81 83.37 1.53 6
91 10/23/2022 20:25:28 -71.86, 52.84 96.60 10/23/2022 20:25:21 -71.88, 52.91 96.58 3.23 7
92 10/23/2022 21:14:55 71.87,-139.53 83.42 10/23/2022 21:14:46 71.85,-139.49 83.41 2.06 9
93 10/23/2022 22:04:19 -71.83, 28.19 96.61 10/23/2022 22:04:11 -71.84, 28.14 96.59 2.32 8
94 10/23/2022 22:53:46 71.83,-164.18 83.41 10/23/2022 22:53:36 71.82,-164.25 83.40 2.94 10
95 10/23/2022 23:43:11 -71.85, 3.44 96.57 10/23/2022 23:43:00 -71.86, 3.47 96.55 1.98 11
96 10/24/2022 00:32:38 71.85, 171.07 83.45 10/24/2022 00:32:25 71.83, 171.07 83.44 1.73 13
97 10/24/2022 01:22:02 -71.81, -21.21 96.58 10/24/2022 01:21:50 -71.82, -21.30 96.57 3.38 12
98 10/24/2022 02:11:30 71.87, 146.32 83.50 10/24/2022 02:11:14 71.85, 146.39 83.48 2.99 16
99 10/24/2022 03:00:54 -71.83, -45.96 96.54 10/24/2022 03:00:39 -71.84, -45.98 96.52 1.55 15
100 10/24/2022 03:50:21 71.83, 121.67 83.49 10/24/2022 03:50:04 71.81, 121.62 83.46 2.67 17
101 10/24/2022 04:39:46 -71.85, -70.71 96.49 10/24/2022 04:39:28 -71.86, -70.65 96.48 2.25 18
102 10/24/2022 05:29:13 71.85, 96.92 83.53 10/24/2022 05:28:53 71.83, 96.95 83.51 2.37 20
103 10/24/2022 06:18:37 -71.81, -95.36 96.50 10/24/2022 06:18:18 -71.82, -95.42 96.50 2.43 19
104 10/24/2022 07:08:04 71.82, 72.27 83.52 10/24/2022 07:07:42 71.85, 72.27 83.55 3.55 22
105 10/24/2022 07:57:29 -71.83,-120.11 96.46 10/24/2022 07:57:07 -71.84,-120.10 96.45 1.03 22
106 10/24/2022 08:46:56 71.83, 47.52 83.56 10/24/2022 08:46:32 71.81, 47.50 83.53 2.78 24
107 10/24/2022 09:36:21 -71.85,-144.85 96.42 10/24/2022 09:35:56 -71.86,-144.78 96.41 2.81 25
108 10/24/2022 10:25:48 71.85, 22.78 83.60 10/24/2022 10:25:21 71.83, 22.82 83.57 3.23 27
109 10/24/2022 11:15:12 -71.81,-169.51 96.43 10/24/2022 11:14:46 -71.82,-169.54 96.43 1.45 26
110 10/24/2022 12:04:39 71.82, -1.88 83.59 10/24/2022 12:04:10 71.84, -1.86 83.62 3.05 29
111 10/24/2022 12:54:04 -71.83, 165.75 96.39 10/24/2022 12:53:35 -71.84, 165.78 96.39 1.23 29
112 10/24/2022 13:43:31 71.84, -26.62 83.63 10/24/2022 13:43:00 71.81, -26.62 83.60 3.26 31
113 10/24/2022 14:32:55 -71.80, 141.09 96.40 10/24/2022 14:32:25 -71.80, 141.01 96.40 2.85 30
114 10/24/2022 15:22:22 71.80, -51.28 83.62 10/24/2022 15:21:49 71.82, -51.30 83.64 2.66 33
115 10/24/2022 16:11:47 -71.82, 116.34 96.36 10/24/2022 16:11:14 -71.82, 116.33 96.36 0.44 33
116 10/24/2022 17:01:13 71.82, -76.02 83.66 10/24/2022 17:00:37 71.84, -75.98 83.68 2.80 36
117 10/24/2022 17:50:38 -71.83, 91.60 96.32 10/24/2022 17:50:02 -71.83, 91.66 96.32 1.99 36
118 10/24/2022 18:40:04 71.79,-100.68 83.65 10/24/2022 18:39:27 71.80,-100.75 83.67 3.18 37
119 10/24/2022 19:29:29 -71.80, 66.94 96.33 10/24/2022 19:28:52 -71.80, 66.89 96.33 1.98 37
120 10/24/2022 20:18:56 71.80,-125.43 83.70 10/24/2022 20:18:16 71.82,-125.43 83.71 1.84 40
121 10/24/2022 21:08:21 -71.82, 42.20 96.28 10/24/2022 21:07:41 -71.81, 42.21 96.29 0.63 40
122 10/24/2022 21:57:48 71.82,-150.17 83.74 10/24/2022 21:57:05 71.84,-150.10 83.75 2.91 43
123 10/24/2022 22:47:13 -71.84, 17.45 96.24 10/24/2022 22:46:30 -71.83, 17.53 96.25 2.94 43
124 10/24/2022 23:36:39 71.79,-174.83 83.73 10/24/2022 23:35:55 71.80,-174.87 83.74 2.07 44
125 10/25/2022 00:26:04 -71.80, -7.20 96.25 10/25/2022 00:25:20 -71.79, -7.24 96.26 1.38 44
126 10/25/2022 01:15:31 71.81, 160.43 83.77 10/25/2022 01:14:44 71.82, 160.45 83.78 1.40 47
127 10/25/2022 02:04:56 -71.82, -31.95 96.21 10/25/2022 02:04:09 -71.81, -31.91 96.22 1.71 47
128 10/25/2022 02:54:22 71.77, 135.77 83.76 10/25/2022 02:53:34 71.78, 135.68 83.76 3.24 48
129 10/25/2022 03:43:47 -71.79, -56.61 96.22 10/25/2022 03:42:59 -71.77, -56.68 96.24 2.92 48
130 10/25/2022 04:33:14 71.79, 111.02 83.80 10/25/2022 04:32:23 71.80, 111.00 83.80 0.92 51
131 10/25/2022 05:22:39 -71.80, -81.35 96.18 10/25/2022 05:21:48 -71.79, -81.36 96.20 1.53 51
132 10/25/2022 06:12:06 71.81, 86.28 83.84 10/25/2022 06:11:12 71.81, 86.33 83.84 1.74 54
133 10/25/2022 07:01:31 -71.82,-106.10 96.14 10/25/2022 07:00:37 -71.81,-106.04 96.15 2.83 54
134 10/25/2022 07:50:57 71.77, 61.62 83.83 10/25/2022 07:50:02 71.78, 61.56 83.83 2.27 55
135 10/25/2022 08:40:22 -71.79,-130.76 96.15 10/25/2022 08:39:27 -71.77,-130.80 96.17 2.63 55
136 10/25/2022 09:29:49 71.79, 36.87 83.88 10/25/2022 09:28:51 71.79, 36.88 83.87 0.27 58
137 10/25/2022 10:19:14 -71.81,-155.50 96.10 10/25/2022 10:18:16 -71.79,-155.48 96.13 2.33 58
138 10/25/2022 11:08:41 71.81, 12.13 83.92 10/25/2022 11:07:40 71.81, 12.20 83.91 2.63 61
139 10/25/2022 11:58:05 -71.77, 179.84 96.11 10/25/2022 11:57:05 -71.80, 179.84 96.09 3.50 60
140 10/25/2022 12:47:32 71.78, -12.53 83.91 10/25/2022 12:46:30 71.77, -12.57 83.90 1.61 62
141 10/25/2022 13:36:57 -71.79, 155.10 96.07 10/25/2022 13:35:55 -71.77, 155.07 96.10 2.84 62
142 10/25/2022 14:26:24 71.80, -37.28 83.95 10/25/2022 14:25:19 71.79, -37.25 83.94 1.49 65
143 10/25/2022 15:15:48 -71.76, 130.44 96.08 10/25/2022 15:14:44 -71.78, 130.39 96.06 3.38 64
144 10/25/2022 16:05:15 71.76, -61.93 83.94 10/25/2022 16:04:09 71.75, -62.02 83.92 3.25 66
145 10/25/2022 16:54:40 -71.78, 105.69 96.04 10/25/2022 16:53:33 -71.80, 105.72 96.02 2.86 67
146 10/25/2022 17:44:07 71.78, -86.68 83.98 10/25/2022 17:42:58 71.77, -86.69 83.96 1.77 69
147 10/25/2022 18:33:32 -71.80, 80.95 96.00 10/25/2022 18:32:23 -71.76, 80.95 96.03 3.51 69
148 10/25/2022 19:22:59 71.80,-111.43 84.02 10/25/2022 19:21:47 71.78,-111.37 84.00 2.76 72
149 10/25/2022 20:12:23 -71.76, 56.29 96.01 10/25/2022 20:11:12 -71.78, 56.27 95.99 2.28 71
150 10/25/2022 21:01:50 71.77,-136.08 84.01 10/25/2022 21:00:37 71.75,-136.14 83.99 3.10 73
151 10/25/2022 21:51:15 -71.78, 31.54 95.97 10/25/2022 21:50:02 -71.74, 31.50 96.01 4.30 73
152 10/25/2022 22:40:40 71.68,-160.65 83.95 10/25/2022 22:39:28 71.65,-161.00 83.92 12.70 72
153 10/25/2022 23:30:05 -71.69, 6.98 96.03 10/25/2022 23:28:52 -71.71, 6.73 96.02 8.68 73
154 10/26/2022 00:19:30 71.59, 174.79 83.89 10/26/2022 00:18:19 71.56, 174.14 83.85 22.97 71
155 10/26/2022 01:08:55 -71.60, -17.59 96.09 10/26/2022 01:07:43 -71.62, -18.12 96.09 18.87 72
156 10/26/2022 01:58:20 71.50, 150.22 83.83 10/26/2022 01:57:10 71.47, 149.29 83.77 33.30 70
157 10/26/2022 02:47:45 -71.52, -42.15 96.15 10/26/2022 02:46:34 -71.52, -42.98 96.16 29.14 71
158 10/26/2022 03:37:10 71.41, 125.66 83.76 10/26/2022 03:36:00 71.43, 124.52 83.76 40.37 70
159 10/26/2022 04:26:35 -71.43, -66.72 96.21 10/26/2022 04:25:25 -71.43, -67.83 96.23 39.43 70
160 10/26/2022 05:16:00 71.32, 101.09 83.70 10/26/2022 05:14:51 71.34, 99.66 83.69 50.70 69
161 10/26/2022 06:05:25 -71.34, -91.29 96.28 10/26/2022 06:04:16 -71.34, -92.69 96.30 49.73 69
162 10/26/2022 06:54:50 71.24, 76.52 83.64 10/26/2022 06:53:42 71.25, 74.81 83.62 61.04 68
163 10/26/2022 07:44:15 -71.25,-115.86 96.34 10/26/2022 07:43:07 -71.25,-117.54 96.37 60.03 68
164 10/26/2022 08:33:40 71.15, 51.95 83.58 10/26/2022 08:32:33 71.16, 49.96 83.55 71.40 67
165 10/26/2022 09:23:05 -71.16,-140.43 96.40 10/26/2022 09:21:58 -71.16,-142.39 96.44 70.33 67
166 10/26/2022 10:12:30 71.06, 27.37 83.52 10/26/2022 10:11:24 71.06, 25.11 83.47 81.75 66
167 10/26/2022 11:01:55 -71.07,-165.01 96.46 10/26/2022 11:00:48 -71.12,-167.16 96.46 77.63 67
168 10/26/2022 11:51:20 70.97, 2.80 83.45 10/26/2022 11:50:15 70.97, 0.26 83.40 92.12 65
169 10/26/2022 12:40:46 -71.04, 170.33 96.47 10/26/2022 12:39:39 -71.03, 167.99 96.53 84.56 67
170 10/26/2022 14:19:36 -70.95, 145.76 96.53 10/26/2022 14:18:30 -70.94, 143.15 96.60 94.86 66



Historial Predications of SNOs between AQUA and TERRA
